User: anonymous
Location: NJAA Observatory
(40.6819°N, 74.8979°W)
Time: 10:46:37
(UTC-04:00)
Language:

Landsat 5 - Orbit

View from above orbital plane
View from above orbital plane
View from above satellite
View from above satellite

Ground track
Ground track

The orbit data is extracted from the following two-line orbital elements,

1 14780U 84021A   14209.33431683  .00001028  00000-0  10729-3 0  3731
2 14780 098.0530 287.3614 0096315 038.7423 003.7340 14.88751109618746
Epoch (UTC): 28 July 2014 08:01:24
Eccentricity: 0.0096315
inclination: 98.0530°
perigee height: 534 km
apogee height: 669 km
right ascension of ascending node: 287.3614°
argument of perigee: 38.7423°
revolutions per day: 14.88751109
mean anomaly at epoch: 3.7340°
orbit number at epoch: 61874

The dashed part of the orbit path shows where the satellite is in the earth's shadow,  

DLR